Location: Rounton
(54.4000°N, 1.3500°W)
Time: 01:27:45
(UTC+00:00)

Vanguard 3 - Pass Details

Date: 09 December 2021
Orbit: 508 x 3260 km, 33.3° (Epoch: 19 January)

Event Time Altitude Azimuth Distance (km) Brightness Sun altitude
Exits shadow 02:41:23 31° 169° (S) 4,627 10.7 -46.1°
Maximum altitude 02:43:22 32° 160° (SSE) 4,601 10.7 -45.9°
Drops below altitude 10° 02:58:26 10° 107° (ESE) 5,790 11.8 -43.9°
Sets 03:03:09 0° 99° (E) 6,525 12.4 -43.3°
